owner,sensor,date,latitude,longitude,vertical_datum,wind_speed,wind_to_direction,wind_speed_of_gust,qcFlag 
COMPS,ioos:station:USF.COMPS:ARP:1,2017-05-01T00:00:00Z,28.4330,-82.6670,10.0,3.03,265.73,3.82,'1111122,1111122,1111122' 
COMPS,ioos:station:USF.COMPS:ARP:1,2017-05-01T00:06:00Z,28.4330,-82.6670,10.0,1.94,269.8,3.23,'1111122,1111122,1111122' 
COMPS,ioos:station:USF.COMPS:ARP:1,2017-05-01T00:12:00Z,28.4330,-82.6670,10.0,1.61,250.44,2.45,'1111122,1111122,1111122' 
COMPS,ioos:station:USF.COMPS:ARP:1,2017-05-01T00:18:00Z,28.4330,-82.6670,10.0,1.57,253.62,2.05,'1111122,1111122,1111122' 
COMPS,ioos:station:USF.COMPS:ARP:1,2017-05-01T00:24:00Z,28.4330,-82.6670,10.0,1.6,265.63,2.35,'1111122,1111122,1111122' 
COMPS,ioos:station:USF.COMPS:ARP:1,2017-05-01T00:30:00Z,28.4330,-82.6670,10.0,0.3,203.79,0.78,'1111122,1111122,1111122' 
COMPS,ioos:station:USF.COMPS:ARP:1,2017-05-01T00:36:00Z,28.4330,-82.6670,10.0,0.5,215.25,1.17,'1111122,1111122,1111122' 
COMPS,ioos:station:USF.COMPS:ARP:1,2017-05-01T00:42:00Z,28.4330,-82.6670,10.0,0.53,106.85,1.27,'1111122,1111122,1111122' 
COMPS,ioos:station:USF.COMPS:ARP:1,2017-05-01T00:48:00Z,28.4330,-82.6670,10.0,1.07,147.54,1.95,'1111122,1111122,1111122' 
COMPS,ioos:station:USF.COMPS:ARP:1,2017-05-01T00:54:00Z,28.4330,-82.6670,10.0,1.0,113.61,1.66,'1111122,1111122,1111122' 
COMPS,ioos:station:USF.COMPS:ARP:1,2017-05-01T01:00:00Z,28.4330,-82.6670,10.0,0.47,97.59,1.76,'1111122,1111122,1111122' 
COMPS,ioos:station:USF.COMPS:ARP:1,2017-05-01T01:06:00Z,28.4330,-82.6670,10.0,1.13,75.27,2.35,'1111122,1111122,1111122' 
COMPS,ioos:station:USF.COMPS:ARP:1,2017-05-01T01:12:00Z,28.4330,-82.6670,10.0,0.55,82.85,1.07,'1111122,1111122,1111122' 
COMPS,ioos:station:USF.COMPS:ARP:1,2017-05-01T01:18:00Z,28.4330,-82.6670,10.0,0.12,260.91,0.39,'1111122,1111122,1111122' 
COMPS,ioos:station:USF.COMPS:ARP:1,2017-05-01T01:24:00Z,28.4330,-82.6670,10.0,0.52,67.8,1.17,'1111122,1111122,1111122' 
COMPS,ioos:station:USF.COMPS:ARP:1,2017-05-01T01:30:00Z,28.4330,-82.6670,10.0,0.38,100.03,1.27,'1111122,1111122,1111122' 
COMPS,ioos:station:USF.COMPS:ARP:1,2017-05-01T01:36:00Z,28.4330,-82.6670,10.0,0.13,93.01,0.88,'1111122,1111122,1111122' 
COMPS,ioos:station:USF.COMPS:ARP:1,2017-05-01T01:42:00Z,28.4330,-82.6670,10.0,0.4,112.09,0.68,'1111122,1111122,1111122' 
COMPS,ioos:station:USF.COMPS:ARP:1,2017-05-01T01:48:00Z,28.4330,-82.6670,10.0,0.77,131.11,1.07,'1111122,1111122,1111122' 
COMPS,ioos:station:USF.COMPS:ARP:1,2017-05-01T01:54:00Z,28.4330,-82.6670,10.0,0.43,120.15,0.78,'1111122,1111122,1111122' 
COMPS,ioos:station:USF.COMPS:ARP:1,2017-05-01T02:00:00Z,28.4330,-82.6670,10.0,0.79,113.65,1.17,'1111122,1111122,1111122' 
COMPS,ioos:station:USF.COMPS:ARP:1,2017-05-01T02:06:00Z,28.4330,-82.6670,10.0,0.47,123.09,1.07,'1111122,1111122,1111122' 
COMPS,ioos:station:USF.COMPS:ARP:1,2017-05-01T02:12:00Z,28.4330,-82.6670,10.0,0.9,70.67,2.15,'1111122,1111122,1111122' 
COMPS,ioos:station:USF.COMPS:ARP:1,2017-05-01T02:18:00Z,28.4330,-82.6670,10.0,1.33,85.57,2.25,'1111122,1111122,1111122' 
COMPS,ioos:station:USF.COMPS:ARP:1,2017-05-01T02:24:00Z,28.4330,-82.6670,10.0,0.69,129.15,1.27,'1111122,1111122,1111122' 
COMPS,ioos:station:USF.COMPS:ARP:1,2017-05-01T02:30:00Z,28.4330,-82.6670,10.0,0.62,151.32,0.88,'1111122,1111122,1111122' 
COMPS,ioos:station:USF.COMPS:ARP:1,2017-05-01T02:36:00Z,28.4330,-82.6670,10.0,0.61,163.35,1.07,'1111122,1111122,1111122' 
COMPS,ioos:station:USF.COMPS:ARP:1,2017-05-01T02:42:00Z,28.4330,-82.6670,10.0,0.27,129.23,0.58,'1111122,1111122,1111122' 
COMPS,ioos:station:USF.COMPS:ARP:1,2017-05-01T02:48:00Z,28.4330,-82.6670,10.0,0.44,132.82,0.78,'1111122,1111122,1111122' 
COMPS,ioos:station:USF.COMPS:ARP:1,2017-05-01T02:54:00Z,28.4330,-82.6670,10.0,0.8,102.82,1.17,'1111122,1111122,1111122' 
COMPS,ioos:station:USF.COMPS:ARP:1,2017-05-01T03:00:00Z,28.4330,-82.6670,10.0,0.75,106.89,1.27,'1111122,1111122,1111122' 
COMPS,ioos:station:USF.COMPS:ARP:1,2017-05-01T03:06:00Z,28.4330,-82.6670,10.0,1.09,97.39,1.66,'1111122,1111122,1111122' 
COMPS,ioos:station:USF.COMPS:ARP:1,2017-05-01T03:12:00Z,28.4330,-82.6670,10.0,1.44,111.83,2.25,'1111122,1111122,1111122' 
COMPS,ioos:station:USF.COMPS:ARP:1,2017-05-01T03:18:00Z,28.4330,-82.6670,10.0,1.39,105.6,2.15,'1111122,1111122,1111122' 
COMPS,ioos:station:USF.COMPS:ARP:1,2017-05-01T03:24:00Z,28.4330,-82.6670,10.0,0.86,114.41,1.66,'1111122,1111122,1111122' 
COMPS,ioos:station:USF.COMPS:ARP:1,2017-05-01T03:30:00Z,28.4330,-82.6670,10.0,1.29,113.23,2.25,'1111122,1111122,1111122' 
COMPS,ioos:station:USF.COMPS:ARP:1,2017-05-01T03:36:00Z,28.4330,-82.6670,10.0,1.75,123.83,2.54,'1111122,1111122,1111122' 
COMPS,ioos:station:USF.COMPS:ARP:1,2017-05-01T03:42:00Z,28.4330,-82.6670,10.0,1.51,129.31,3.23,'1111122,1111122,1111122' 
COMPS,ioos:station:USF.COMPS:ARP:1,2017-05-01T03:48:00Z,28.4330,-82.6670,10.0,1.39,148.63,2.84,'1111122,1111122,1111122' 
COMPS,ioos:station:USF.COMPS:ARP:1,2017-05-01T03:54:00Z,28.4330,-82.6670,10.0,1.51,137.5,3.82,'1111122,1111122,1111122' 
COMPS,ioos:station:USF.COMPS:ARP:1,2017-05-01T04:00:00Z,28.4330,-82.6670,10.0,1.53,145.8,3.72,'1111122,1111122,1111122' 
COMPS,ioos:station:USF.COMPS:ARP:1,2017-05-01T04:06:00Z,28.4330,-82.6670,10.0,2.19,149.08,5.48,'1111122,1111122,1111122' 
COMPS,ioos:station:USF.COMPS:ARP:1,2017-05-01T04:12:00Z,28.4330,-82.6670,10.0,1.61,146.28,3.33,'1111122,1111122,1111122' 
COMPS,ioos:station:USF.COMPS:ARP:1,2017-05-01T04:18:00Z,28.4330,-82.6670,10.0,1.47,139.45,3.23,'1111122,1111122,1111122' 
COMPS,ioos:station:USF.COMPS:ARP:1,2017-05-01T04:24:00Z,28.4330,-82.6670,10.0,2.23,147.16,5.48,'1111122,1111122,1111122' 
COMPS,ioos:station:USF.COMPS:ARP:1,2017-05-01T04:30:00Z,28.4330,-82.6670,10.0,1.89,154.24,4.5,'1111122,1111122,1111122' 
COMPS,ioos:station:USF.COMPS:ARP:1,2017-05-01T04:36:00Z,28.4330,-82.6670,10.0,1.49,147.59,3.33,'1111122,1111122,1111122' 
COMPS,ioos:station:USF.COMPS:ARP:1,2017-05-01T04:42:00Z,28.4330,-82.6670,10.0,1.93,158.52,4.31,'1111122,1111122,1111122' 
COMPS,ioos:station:USF.COMPS:ARP:1,2017-05-01T04:48:00Z,28.4330,-82.6670,10.0,1.47,157.05,3.13,'1111122,1111122,1111122' 
COMPS,ioos:station:USF.COMPS:ARP:1,2017-05-01T04:54:00Z,28.4330,-82.6670,10.0,1.32,145.31,2.93,'1111122,1111122,1111122' 
COMPS,ioos:station:USF.COMPS:ARP:1,2017-05-01T05:00:00Z,28.4330,-82.6670,10.0,1.48,136.03,4.11,'1111122,1111122,1111122' 
COMPS,ioos:station:USF.COMPS:ARP:1,2017-05-01T05:06:00Z,28.4330,-82.6670,10.0,1.62,148.31,3.62,'1111122,1111122,1111122' 
COMPS,ioos:station:USF.COMPS:ARP:1,2017-05-01T05:12:00Z,28.4330,-82.6670,10.0,1.72,135.94,3.82,'1111122,1111122,1111122' 
COMPS,ioos:station:USF.COMPS:ARP:1,2017-05-01T05:18:00Z,28.4330,-82.6670,10.0,1.92,133.93,3.72,'1111122,1111122,1111122' 
COMPS,ioos:station:USF.COMPS:ARP:1,2017-05-01T05:24:00Z,28.4330,-82.6670,10.0,1.55,152.0,4.11,'1111122,1111122,1111122' 
COMPS,ioos:station:USF.COMPS:ARP:1,2017-05-01T05:30:00Z,28.4330,-82.6670,10.0,2.17,134.41,4.6,'1111122,1111122,1111122' 
COMPS,ioos:station:USF.COMPS:ARP:1,2017-05-01T05:36:00Z,28.4330,-82.6670,10.0,1.64,139.41,4.21,'1111122,1111122,1111122' 
COMPS,ioos:station:USF.COMPS:ARP:1,2017-05-01T05:42:00Z,28.4330,-82.6670,10.0,2.12,156.93,5.48,'1111122,1111122,1111122' 
COMPS,ioos:station:USF.COMPS:ARP:1,2017-05-01T05:48:00Z,28.4330,-82.6670,10.0,1.97,142.13,3.62,'1111122,1111122,1111122' 
COMPS,ioos:station:USF.COMPS:ARP:1,2017-05-01T05:54:00Z,28.4330,-82.6670,10.0,1.2,140.61,2.93,'1111122,1111122,1111122' 
COMPS,ioos:station:USF.COMPS:ARP:1,2017-05-01T06:00:00Z,28.4330,-82.6670,10.0,1.54,149.75,3.52,'1111122,1111122,1111122' 
COMPS,ioos:station:USF.COMPS:ARP:1,2017-05-01T06:06:00Z,28.4330,-82.6670,10.0,1.88,138.84,3.42,'1111122,1111122,1111122' 
COMPS,ioos:station:USF.COMPS:ARP:1,2017-05-01T06:12:00Z,28.4330,-82.6670,10.0,1.53,147.85,3.52,'1111122,1111122,1111122' 
COMPS,ioos:station:USF.COMPS:ARP:1,2017-05-01T06:18:00Z,28.4330,-82.6670,10.0,1.24,138.15,2.93,'1111122,1111122,1111122' 
COMPS,ioos:station:USF.COMPS:ARP:1,2017-05-01T06:24:00Z,28.4330,-82.6670,10.0,1.47,119.56,2.74,'1111122,1111122,1111122' 
COMPS,ioos:station:USF.COMPS:ARP:1,2017-05-01T06:30:00Z,28.4330,-82.6670,10.0,1.62,127.48,3.23,'1111122,1111122,1111122' 
COMPS,ioos:station:USF.COMPS:ARP:1,2017-05-01T06:36:00Z,28.4330,-82.6670,10.0,1.47,134.63,3.23,'1111122,1111122,1111122' 
COMPS,ioos:station:USF.COMPS:ARP:1,2017-05-01T06:42:00Z,28.4330,-82.6670,10.0,1.16,122.52,2.64,'1111122,1111122,1111122' 
COMPS,ioos:station:USF.COMPS:ARP:1,2017-05-01T06:48:00Z,28.4330,-82.6670,10.0,1.91,130.27,3.33,'1111122,1111122,1111122' 
COMPS,ioos:station:USF.COMPS:ARP:1,2017-05-01T06:54:00Z,28.4330,-82.6670,10.0,1.41,117.87,2.74,'1111122,1111122,1111122' 
COMPS,ioos:station:USF.COMPS:ARP:1,2017-05-01T07:00:00Z,28.4330,-82.6670,10.0,1.71,130.83,3.23,'1111122,1111122,1111122' 
COMPS,ioos:station:USF.COMPS:ARP:1,2017-05-01T07:06:00Z,28.4330,-82.6670,10.0,1.33,126.0,2.05,'1111122,1111122,1111122' 
COMPS,ioos:station:USF.COMPS:ARP:1,2017-05-01T07:12:00Z,28.4330,-82.6670,10.0,1.56,128.91,3.13,'1111122,1111122,1111122' 
COMPS,ioos:station:USF.COMPS:ARP:1,2017-05-01T07:18:00Z,28.4330,-82.6670,10.0,1.39,121.44,2.93,'1111122,1111122,1111122' 
COMPS,ioos:station:USF.COMPS:ARP:1,2017-05-01T07:24:00Z,28.4330,-82.6670,10.0,1.66,125.63,2.93,'1111122,1111122,1111122' 
COMPS,ioos:station:USF.COMPS:ARP:1,2017-05-01T07:30:00Z,28.4330,-82.6670,10.0,1.7,114.32,3.03,'1111122,1111122,1111122' 
COMPS,ioos:station:USF.COMPS:ARP:1,2017-05-01T07:36:00Z,28.4330,-82.6670,10.0,1.76,128.58,3.52,'1111122,1111122,1111122' 
COMPS,ioos:station:USF.COMPS:ARP:1,2017-05-01T07:42:00Z,28.4330,-82.6670,10.0,1.68,124.93,3.13,'1111122,1111122,1111122' 
COMPS,ioos:station:USF.COMPS:ARP:1,2017-05-01T07:48:00Z,28.4330,-82.6670,10.0,1.75,120.3,3.62,'1111122,1111122,1111122' 
COMPS,ioos:station:USF.COMPS:ARP:1,2017-05-01T07:54:00Z,28.4330,-82.6670,10.0,1.41,120.11,3.13,'1111122,1111122,1111122' 
COMPS,ioos:station:USF.COMPS:ARP:1,2017-05-01T08:00:00Z,28.4330,-82.6670,10.0,1.23,131.36,2.45,'1111122,1111122,1111122' 
COMPS,ioos:station:USF.COMPS:ARP:1,2017-05-01T08:06:00Z,28.4330,-82.6670,10.0,1.41,132.11,2.93,'1111122,1111122,1111122' 
COMPS,ioos:station:USF.COMPS:ARP:1,2017-05-01T08:12:00Z,28.4330,-82.6670,10.0,1.39,131.34,3.13,'1111122,1111122,1111122' 
COMPS,ioos:station:USF.COMPS:ARP:1,2017-05-01T08:18:00Z,28.4330,-82.6670,10.0,1.93,128.48,3.52,'1111122,1111122,1111122' 
COMPS,ioos:station:USF.COMPS:ARP:1,2017-05-01T08:24:00Z,28.4330,-82.6670,10.0,1.75,133.02,3.91,'1111122,1111122,1111122' 
COMPS,ioos:station:USF.COMPS:ARP:1,2017-05-01T08:30:00Z,28.4330,-82.6670,10.0,1.45,134.46,4.01,'1111122,1111122,1111122' 
COMPS,ioos:station:USF.COMPS:ARP:1,2017-05-01T08:36:00Z,28.4330,-82.6670,10.0,1.64,128.42,4.01,'1111122,1111122,1111122' 
COMPS,ioos:station:USF.COMPS:ARP:1,2017-05-01T08:42:00Z,28.4330,-82.6670,10.0,1.73,137.83,3.23,'1111122,1111122,1111122' 
COMPS,ioos:station:USF.COMPS:ARP:1,2017-05-01T08:48:00Z,28.4330,-82.6670,10.0,1.97,128.66,3.52,'1111122,1111122,1111122' 
COMPS,ioos:station:USF.COMPS:ARP:1,2017-05-01T08:54:00Z,28.4330,-82.6670,10.0,1.91,136.09,3.62,'1111122,1111122,1111122' 
COMPS,ioos:station:USF.COMPS:ARP:1,2017-05-01T09:00:00Z,28.4330,-82.6670,10.0,1.12,120.49,2.15,'1111122,1111122,1111122' 
COMPS,ioos:station:USF.COMPS:ARP:1,2017-05-01T09:06:00Z,28.4330,-82.6670,10.0,1.26,112.87,2.64,'1111122,1111122,1111122' 
COMPS,ioos:station:USF.COMPS:ARP:1,2017-05-01T09:12:00Z,28.4330,-82.6670,10.0,1.01,118.27,2.84,'1111122,1111122,1111122' 
COMPS,ioos:station:USF.COMPS:ARP:1,2017-05-01T09:18:00Z,28.4330,-82.6670,10.0,1.29,140.23,3.23,'1111122,1111122,1111122' 
COMPS,ioos:station:USF.COMPS:ARP:1,2017-05-01T09:24:00Z,28.4330,-82.6670,10.0,1.25,128.03,3.42,'1111122,1111122,1111122' 
COMPS,ioos:station:USF.COMPS:ARP:1,2017-05-01T09:30:00Z,28.4330,-82.6670,10.0,1.12,132.0,2.45,'1111122,1111122,1111122' 
COMPS,ioos:station:USF.COMPS:ARP:1,2017-05-01T09:36:00Z,28.4330,-82.6670,10.0,1.44,130.83,3.03,'1111122,1111122,1111122' 
COMPS,ioos:station:USF.COMPS:ARP:1,2017-05-01T09:42:00Z,28.4330,-82.6670,10.0,1.39,145.23,2.74,'1111122,1111122,1111122' 
COMPS,ioos:station:USF.COMPS:ARP:1,2017-05-01T09:48:00Z,28.4330,-82.6670,10.0,1.29,125.6,3.91,'1111122,1111122,1111122' 
COMPS,ioos:station:USF.COMPS:ARP:1,2017-05-01T09:54:00Z,28.4330,-82.6670,10.0,1.79,141.26,3.03,'1111122,1111122,1111122' 
COMPS,ioos:station:USF.COMPS:ARP:1,2017-05-01T10:00:00Z,28.4330,-82.6670,10.0,2.41,130.85,4.31,'1111122,1111122,1111122' 
COMPS,ioos:station:USF.COMPS:ARP:1,2017-05-01T10:06:00Z,28.4330,-82.6670,10.0,1.93,139.99,3.42,'1111122,1111122,1111122' 
COMPS,ioos:station:USF.COMPS:ARP:1,2017-05-01T10:12:00Z,28.4330,-82.6670,10.0,1.68,128.82,3.82,'1111122,1111122,1111122' 
COMPS,ioos:station:USF.COMPS:ARP:1,2017-05-01T10:18:00Z,28.4330,-82.6670,10.0,1.28,123.09,2.74,'1111122,1111122,1111122' 
COMPS,ioos:station:USF.COMPS:ARP:1,2017-05-01T10:24:00Z,28.4330,-82.6670,10.0,1.91,134.01,4.41,'1111122,1111122,1111122' 
COMPS,ioos:station:USF.COMPS:ARP:1,2017-05-01T10:30:00Z,28.4330,-82.6670,10.0,1.51,129.76,3.23,'1111122,1111122,1111122' 
COMPS,ioos:station:USF.COMPS:ARP:1,2017-05-01T10:36:00Z,28.4330,-82.6670,10.0,1.45,137.83,3.72,'1111122,1111122,1111122' 
COMPS,ioos:station:USF.COMPS:ARP:1,2017-05-01T10:42:00Z,28.4330,-82.6670,10.0,1.47,138.42,4.21,'1111122,1111122,1111122' 
COMPS,ioos:station:USF.COMPS:ARP:1,2017-05-01T10:48:00Z,28.4330,-82.6670,10.0,2.07,130.27,4.21,'1111122,1111122,1111122' 
COMPS,ioos:station:USF.COMPS:ARP:1,2017-05-01T10:54:00Z,28.4330,-82.6670,10.0,2.11,133.29,3.91,'1111122,1111122,1111122' 
COMPS,ioos:station:USF.COMPS:ARP:1,2017-05-01T11:00:00Z,28.4330,-82.6670,10.0,1.69,124.75,2.93,'1111122,1111122,1111122' 
COMPS,ioos:station:USF.COMPS:ARP:1,2017-05-01T11:06:00Z,28.4330,-82.6670,10.0,1.75,129.61,3.33,'1111122,1111122,1111122' 
COMPS,ioos:station:USF.COMPS:ARP:1,2017-05-01T11:12:00Z,28.4330,-82.6670,10.0,1.38,130.2,3.13,'1111122,1111122,1111122' 
COMPS,ioos:station:USF.COMPS:ARP:1,2017-05-01T11:18:00Z,28.4330,-82.6670,10.0,1.83,128.69,3.82,'1111122,1111122,1111122' 
COMPS,ioos:station:USF.COMPS:ARP:1,2017-05-01T11:24:00Z,28.4330,-82.6670,10.0,1.42,127.25,3.23,'1111122,1111122,1111122' 
COMPS,ioos:station:USF.COMPS:ARP:1,2017-05-01T11:30:00Z,28.4330,-82.6670,10.0,1.73,118.72,4.31,'1111122,1111122,1111122' 
COMPS,ioos:station:USF.COMPS:ARP:1,2017-05-01T11:36:00Z,28.4330,-82.6670,10.0,1.18,129.22,2.64,'1111122,1111122,1111122' 
COMPS,ioos:station:USF.COMPS:ARP:1,2017-05-01T11:42:00Z,28.4330,-82.6670,10.0,1.44,158.77,2.84,'1111122,1111122,1111122' 
COMPS,ioos:station:USF.COMPS:ARP:1,2017-05-01T11:48:00Z,28.4330,-82.6670,10.0,1.25,131.3,3.33,'1111122,1111122,1111122' 
COMPS,ioos:station:USF.COMPS:ARP:1,2017-05-01T11:54:00Z,28.4330,-82.6670,10.0,1.85,143.54,3.82,'1111122,1111122,1111122' 
COMPS,ioos:station:USF.COMPS:ARP:1,2017-05-01T12:00:00Z,28.4330,-82.6670,10.0,0.99,145.57,3.91,'1111122,1111122,1111122' 
COMPS,ioos:station:USF.COMPS:ARP:1,2017-05-01T12:06:00Z,28.4330,-82.6670,10.0,1.01,166.54,3.91,'1111122,1111122,1111122' 
COMPS,ioos:station:USF.COMPS:ARP:1,2017-05-01T12:12:00Z,28.4330,-82.6670,10.0,1.4,157.37,3.62,'1111122,1111122,1111122' 
COMPS,ioos:station:USF.COMPS:ARP:1,2017-05-01T12:18:00Z,28.4330,-82.6670,10.0,1.03,137.27,2.74,'1111122,1111122,1111122' 
COMPS,ioos:station:USF.COMPS:ARP:1,2017-05-01T12:24:00Z,28.4330,-82.6670,10.0,1.72,141.15,2.54,'1111122,1111122,1111122' 
COMPS,ioos:station:USF.COMPS:ARP:1,2017-05-01T12:30:00Z,28.4330,-82.6670,10.0,2.16,141.91,4.41,'1111122,1111122,1111122' 
COMPS,ioos:station:USF.COMPS:ARP:1,2017-05-01T12:36:00Z,28.4330,-82.6670,10.0,1.86,165.13,3.62,'1111122,1111122,1111122' 
COMPS,ioos:station:USF.COMPS:ARP:1,2017-05-01T12:42:00Z,28.4330,-82.6670,10.0,1.72,152.15,2.93,'1111122,1111122,1111122' 
COMPS,ioos:station:USF.COMPS:ARP:1,2017-05-01T12:48:00Z,28.4330,-82.6670,10.0,1.43,157.95,4.01,'1111122,1111122,1111122' 
COMPS,ioos:station:USF.COMPS:ARP:1,2017-05-01T12:54:00Z,28.4330,-82.6670,10.0,1.62,150.14,2.93,'1111122,1111122,1111122' 
COMPS,ioos:station:USF.COMPS:ARP:1,2017-05-01T13:00:00Z,28.4330,-82.6670,10.0,1.48,172.5,2.84,'1111122,1111122,1111122' 
COMPS,ioos:station:USF.COMPS:ARP:1,2017-05-01T13:06:00Z,28.4330,-82.6670,10.0,2.31,161.02,5.09,'1111122,1111122,1111122' 
COMPS,ioos:station:USF.COMPS:ARP:1,2017-05-01T13:12:00Z,28.4330,-82.6670,10.0,2.42,193.06,5.78,'1111122,1111122,1111122' 
COMPS,ioos:station:USF.COMPS:ARP:1,2017-05-01T13:18:00Z,28.4330,-82.6670,10.0,2.94,163.13,5.97,'1111122,1111122,1111122' 
COMPS,ioos:station:USF.COMPS:ARP:1,2017-05-01T13:24:00Z,28.4330,-82.6670,10.0,2.64,174.96,4.31,'1111122,1111122,1111122' 
COMPS,ioos:station:USF.COMPS:ARP:1,2017-05-01T13:30:00Z,28.4330,-82.6670,10.0,2.12,166.31,4.5,'1111122,1111122,1111122' 
COMPS,ioos:station:USF.COMPS:ARP:1,2017-05-01T13:36:00Z,28.4330,-82.6670,10.0,2.25,157.96,4.5,'1111122,1111122,1111122' 
COMPS,ioos:station:USF.COMPS:ARP:1,2017-05-01T13:42:00Z,28.4330,-82.6670,10.0,3.36,170.15,7.93,'1111122,1111122,1111122' 
COMPS,ioos:station:USF.COMPS:ARP:1,2017-05-01T13:48:00Z,28.4330,-82.6670,10.0,2.48,180.18,5.48,'1111122,1111122,1111122' 
COMPS,ioos:station:USF.COMPS:ARP:1,2017-05-01T13:54:00Z,28.4330,-82.6670,10.0,2.86,182.61,5.78,'1111122,1111122,1111122' 
COMPS,ioos:station:USF.COMPS:ARP:1,2017-05-01T14:00:00Z,28.4330,-82.6670,10.0,2.03,150.59,5.29,'1111122,1111122,1111122' 
COMPS,ioos:station:USF.COMPS:ARP:1,2017-05-01T14:06:00Z,28.4330,-82.6670,10.0,2.4,195.92,6.66,'1111122,1111122,1111122' 
COMPS,ioos:station:USF.COMPS:ARP:1,2017-05-01T14:12:00Z,28.4330,-82.6670,10.0,2.74,180.39,5.39,'1111122,1111122,1111122' 
COMPS,ioos:station:USF.COMPS:ARP:1,2017-05-01T14:18:00Z,28.4330,-82.6670,10.0,1.98,196.83,5.09,'1111122,1111122,1111122' 
COMPS,ioos:station:USF.COMPS:ARP:1,2017-05-01T14:24:00Z,28.4330,-82.6670,10.0,2.67,207.11,5.87,'1111122,1111122,1111122' 
COMPS,ioos:station:USF.COMPS:ARP:1,2017-05-01T14:30:00Z,28.4330,-82.6670,10.0,2.03,204.15,5.19,'1111122,1111122,1111122' 
COMPS,ioos:station:USF.COMPS:ARP:1,2017-05-01T14:36:00Z,28.4330,-82.6670,10.0,3.41,207.39,6.85,'1111122,1111122,1111122' 
COMPS,ioos:station:USF.COMPS:ARP:1,2017-05-01T14:42:00Z,28.4330,-82.6670,10.0,2.35,204.77,7.83,'1111122,1111122,1111122' 
COMPS,ioos:station:USF.COMPS:ARP:1,2017-05-01T14:48:00Z,28.4330,-82.6670,10.0,3.62,199.0,8.72,'1111122,1111122,1111122' 
COMPS,ioos:station:USF.COMPS:ARP:1,2017-05-01T14:54:00Z,28.4330,-82.6670,10.0,1.97,202.72,4.11,'1111122,1111122,1111122' 
COMPS,ioos:station:USF.COMPS:ARP:1,2017-05-01T15:00:00Z,28.4330,-82.6670,10.0,2.89,206.78,5.29,'1111122,1111122,1111122' 
COMPS,ioos:station:USF.COMPS:ARP:1,2017-05-01T15:06:00Z,28.4330,-82.6670,10.0,2.84,224.77,5.87,'1111122,1111122,1111122' 
COMPS,ioos:station:USF.COMPS:ARP:1,2017-05-01T15:12:00Z,28.4330,-82.6670,10.0,2.88,224.1,5.19,'1111122,1111122,1111122' 
COMPS,ioos:station:USF.COMPS:ARP:1,2017-05-01T15:18:00Z,28.4330,-82.6670,10.0,2.44,213.34,4.6,'1111122,1111122,1111122' 
COMPS,ioos:station:USF.COMPS:ARP:1,2017-05-01T15:24:00Z,28.4330,-82.6670,10.0,3.18,216.03,5.48,'1111122,1111122,1111122' 
COMPS,ioos:station:USF.COMPS:ARP:1,2017-05-01T15:30:00Z,28.4330,-82.6670,10.0,2.89,204.92,5.48,'1111122,1111122,1111122' 
COMPS,ioos:station:USF.COMPS:ARP:1,2017-05-01T15:36:00Z,28.4330,-82.6670,10.0,2.9,227.61,5.58,'1111122,1111122,1111122' 
COMPS,ioos:station:USF.COMPS:ARP:1,2017-05-01T15:42:00Z,28.4330,-82.6670,10.0,2.09,209.3,4.31,'1111122,1111122,1111122' 
COMPS,ioos:station:USF.COMPS:ARP:1,2017-05-01T15:48:00Z,28.4330,-82.6670,10.0,3.24,224.13,5.29,'1111122,1111122,1111122' 
COMPS,ioos:station:USF.COMPS:ARP:1,2017-05-01T15:54:00Z,28.4330,-82.6670,10.0,3.15,235.86,5.97,'1111122,1111122,1111122' 
COMPS,ioos:station:USF.COMPS:ARP:1,2017-05-01T16:00:00Z,28.4330,-82.6670,10.0,2.42,247.46,5.09,'1111122,1111122,1111122' 
COMPS,ioos:station:USF.COMPS:ARP:1,2017-05-01T16:06:00Z,28.4330,-82.6670,10.0,3.76,264.64,6.07,'1111122,1111122,1111122' 
COMPS,ioos:station:USF.COMPS:ARP:1,2017-05-01T16:12:00Z,28.4330,-82.6670,10.0,5.65,269.63,7.54,'1111122,1111122,1111122' 
COMPS,ioos:station:USF.COMPS:ARP:1,2017-05-01T16:18:00Z,28.4330,-82.6670,10.0,5.19,263.82,6.66,'1111122,1111122,1111122' 
COMPS,ioos:station:USF.COMPS:ARP:1,2017-05-01T16:24:00Z,28.4330,-82.6670,10.0,4.05,263.86,6.37,'1111122,1111122,1111122' 
COMPS,ioos:station:USF.COMPS:ARP:1,2017-05-01T16:30:00Z,28.4330,-82.6670,10.0,3.97,261.57,5.87,'1111122,1111122,1111122' 
COMPS,ioos:station:USF.COMPS:ARP:1,2017-05-01T16:36:00Z,28.4330,-82.6670,10.0,4.98,266.64,7.83,'1111122,1111122,1111122' 
COMPS,ioos:station:USF.COMPS:ARP:1,2017-05-01T16:42:00Z,28.4330,-82.6670,10.0,5.39,259.46,8.42,'1111122,1111122,1111122' 
COMPS,ioos:station:USF.COMPS:ARP:1,2017-05-01T16:48:00Z,28.4330,-82.6670,10.0,4.76,262.5,7.64,'1111122,1111122,1111122' 
COMPS,ioos:station:USF.COMPS:ARP:1,2017-05-01T16:54:00Z,28.4330,-82.6670,10.0,5.18,261.0,8.52,'1111122,1111122,1111122' 
COMPS,ioos:station:USF.COMPS:ARP:1,2017-05-01T17:00:00Z,28.4330,-82.6670,10.0,5.55,261.58,9.6,'1111122,1111122,1111122' 
COMPS,ioos:station:USF.COMPS:ARP:1,2017-05-01T17:06:00Z,28.4330,-82.6670,10.0,4.15,255.91,6.95,'1111122,1111122,1111122' 
COMPS,ioos:station:USF.COMPS:ARP:1,2017-05-01T17:12:00Z,28.4330,-82.6670,10.0,4.78,258.24,7.25,'1111122,1111122,1111122' 
COMPS,ioos:station:USF.COMPS:ARP:1,2017-05-01T17:18:00Z,28.4330,-82.6670,10.0,5.25,263.51,8.13,'1111122,1111122,1111122' 
COMPS,ioos:station:USF.COMPS:ARP:1,2017-05-01T17:24:00Z,28.4330,-82.6670,10.0,5.48,264.57,8.82,'1111122,1111122,1111122' 
COMPS,ioos:station:USF.COMPS:ARP:1,2017-05-01T17:30:00Z,28.4330,-82.6670,10.0,6.97,266.68,11.07,'1111122,1111122,1111122' 
COMPS,ioos:station:USF.COMPS:ARP:1,2017-05-01T17:36:00Z,28.4330,-82.6670,10.0,7.44,259.26,11.17,'1111122,1111122,1111122' 
COMPS,ioos:station:USF.COMPS:ARP:1,2017-05-01T17:42:00Z,28.4330,-82.6670,10.0,6.95,264.93,10.29,'1111122,1111122,1111122' 
COMPS,ioos:station:USF.COMPS:ARP:1,2017-05-01T17:48:00Z,28.4330,-82.6670,10.0,4.75,253.99,7.44,'1111122,1111122,1111122' 
COMPS,ioos:station:USF.COMPS:ARP:1,2017-05-01T17:54:00Z,28.4330,-82.6670,10.0,4.33,250.42,6.95,'1111122,1111122,1111122' 
COMPS,ioos:station:USF.COMPS:ARP:1,2017-05-01T18:00:00Z,28.4330,-82.6670,10.0,4.7,248.39,7.35,'1111122,1111122,1111122' 
COMPS,ioos:station:USF.COMPS:ARP:1,2017-05-01T18:06:00Z,28.4330,-82.6670,10.0,6.12,264.04,8.72,'1111122,1111122,1111122' 
COMPS,ioos:station:USF.COMPS:ARP:1,2017-05-01T18:12:00Z,28.4330,-82.6670,10.0,6.19,257.91,9.5,'1111122,1111122,1111122' 
COMPS,ioos:station:USF.COMPS:ARP:1,2017-05-01T18:18:00Z,28.4330,-82.6670,10.0,6.72,263.85,9.8,'1111122,1111122,1111122' 
COMPS,ioos:station:USF.COMPS:ARP:1,2017-05-01T18:24:00Z,28.4330,-82.6670,10.0,6.91,260.13,10.87,'1111122,1111122,1111122' 
COMPS,ioos:station:USF.COMPS:ARP:1,2017-05-01T18:30:00Z,28.4330,-82.6670,10.0,5.73,263.42,10.19,'1111122,1111122,1111122' 
COMPS,ioos:station:USF.COMPS:ARP:1,2017-05-01T18:36:00Z,28.4330,-82.6670,10.0,5.12,257.1,7.64,'1111122,1111122,1111122' 
COMPS,ioos:station:USF.COMPS:ARP:1,2017-05-01T18:42:00Z,28.4330,-82.6670,10.0,5.49,258.66,9.3,'1111122,1111122,1111122' 
COMPS,ioos:station:USF.COMPS:ARP:1,2017-05-01T18:48:00Z,28.4330,-82.6670,10.0,5.67,262.82,8.91,'1111122,1111122,1111122' 
COMPS,ioos:station:USF.COMPS:ARP:1,2017-05-01T18:54:00Z,28.4330,-82.6670,10.0,7.03,260.8,10.38,'1111122,1111122,1111122' 
COMPS,ioos:station:USF.COMPS:ARP:1,2017-05-01T19:00:00Z,28.4330,-82.6670,10.0,6.95,257.35,11.27,'1111122,1111122,1111122' 
COMPS,ioos:station:USF.COMPS:ARP:1,2017-05-01T19:06:00Z,28.4330,-82.6670,10.0,6.05,260.76,9.6,'1111122,1111122,1111122' 
COMPS,ioos:station:USF.COMPS:ARP:1,2017-05-01T19:12:00Z,28.4330,-82.6670,10.0,5.43,258.57,10.29,'1111122,1111122,1111122' 
COMPS,ioos:station:USF.COMPS:ARP:1,2017-05-01T19:18:00Z,28.4330,-82.6670,10.0,5.38,255.2,9.11,'1111122,1111122,1111122' 
COMPS,ioos:station:USF.COMPS:ARP:1,2017-05-01T19:24:00Z,28.4330,-82.6670,10.0,6.37,259.37,10.58,'1111122,1111122,1111122' 
COMPS,ioos:station:USF.COMPS:ARP:1,2017-05-01T19:30:00Z,28.4330,-82.6670,10.0,5.89,261.55,10.38,'1111122,1111122,1111122' 